Weather Roundup
Issued by NWS Chicago, IL

Home | Current Version | Previous Version | Graphics & Text | Print | Product List | Glossary On
Versions: 1 2 3 4 5 6 7 8 9 10 11 12 13 14 15 16 17 18 19 20 21 22 23 24 25 26 27 28 29 30 31 32 33 34 35 36 37 38 39 40 41 42 43 44 45 46 47 48 49 50
000
NZUS59 KLOT 050606
HRRLOT

CHICAGO AREA WEATHER ROUNDUP
NATIONAL WEATHER SERVICE CHICAGO/ROMEOVILLE IL
1200 AM CST THU MAR 05 2015

NOTE: "FAIR" INDICATES FEW OR NO CLOUDS BELOW 12,000 FEET WITH NO
SIGNIFICANT WEATHER AND/OR OBSTRUCTIONS TO VISIBILITY.

* THESE STATIONS ARE NOT UNDER NWS QUALITY CONTROL. THEY ALSO MAY NOT
  REPORT WEATHER SUCH AS PRECIPITATION OR FOG.

ILZ005-006-012>014-019>023-050700-
NORTHEAST ILLINOIS

CITY           SKY/WX    TMP DP  RH WIND       PRES   REMARKS
OHARE          MOCLDY    10  -2  58 NW12      30.34S WCI  -5
6HR MIN TEMP:  10; 6HR MAX TEMP:  17;

MIDWAY         PTCLDY    14  -1  51 NW12      30.35S WCI   0
6HR MIN TEMP:  14; 6HR MAX TEMP:  20;

AURORA         CLEAR      7  -3  64 NW14      30.36S WCI -10
6HR MIN TEMP:   7; 6HR MAX TEMP:  15;

LANSING*       PTCLDY    14   0  54 NW7       30.34F WCI   3
JOLIET*        PTCLDY    10  -1  59 N6        30.36F WCI   1
WAUKEGAN       CLEAR      5  -5  63 W5        30.34S WCI  -4
6HR MIN TEMP:   4; 6HR MAX TEMP:  16;

DUPAGE AIRPORT CLEAR      9  -3  58 NW12      30.34S WCI  -6
6HR MIN TEMP:   9; 6HR MAX TEMP:  16;

WHEELING       CLEAR     11  -3  53 NW8       30.36F WCI  -1
6HR MIN TEMP:  11; 6HR MAX TEMP:  18;

KANKAKEE*      CLOUDY    14   1  58 NW13      30.35F WCI  -1
MORRIS*        CLEAR      9   1  69 NW9       30.36S WCI  -4
LEWIS AIRPORT* PTCLDY    10  -1  59 NW8       30.35F WCI  -2
NORTHERLY IS     N/A     16   1  51 N10         N/A  WCI   4
$$

WIZ051-052-058>065-066-070>072-050700-
SOUTHEAST WISCONSIN

CITY           SKY/WX    TMP DP  RH WIND       PRES   REMARKS
MILWAUKEE        N/A      9  -9  44 NW8       30.35S WCI  -3
6HR MIN TEMP:   9; 6HR MAX TEMP:  17;

KENOSHA*       CLEAR      3  -9  57 NW3       30.35R
RACINE*        CLEAR      8  -8  48 NW7       30.37R WCI  -3
BURLINGTON     CLEAR     -3 -12  63 N5        30.35R WCI -13
WAUKESHA       CLEAR      5  -9  51 NW6       30.35R WCI  -6
WEST BEND      CLEAR      7  -9  47 CALM      30.34S
$$

INZ001>003-010>013-019-020-050700-
NORTHWEST INDIANA

CITY           SKY/WX    TMP DP  RH WIND       PRES   REMARKS
GARY*          PTCLDY    16  -3  43 NW8       30.34F WCI   5
6HR MIN TEMP:  16; 6HR MAX TEMP:  22;

MICHIGAN CITY* NOT AVBL
RENSSELAER*    NOT AVBL
VALPARAISO     MOCLDY    15   2  56 NW6       30.30F WCI   6
$$

LMZ740>746-050700-
SOUTHERN LAKE MICHIGAN

STATION/POSITION TIME  SKY/WX   TEMP WIND        PRES    VSBY
                                AIR  DIR/SP/G
                 (UTC)          (F)  (DEG/KT/KT) (MB)    (MI)
HARRISON CRIB    0600            15  310/ 17/ 20   N/A
BURNHAM HARBOR   0600            16  330/  9/ 14   N/A
CALUMET HARBOR   0600            14  300/  7/ 13 1026.0F
BURNS HARBOR     NOT AVBL
MICHIGAN CITY    0600            16  280/ 12/ 14   N/A
$$

ABBREVIATIONS USED IN REMARKS
   TC - TEMPERATURE IN CELSIUS
  WCI - WIND CHILL INDEX
   HX - HEAT INDEX
  VSB - VISIBILITY
$$


USA.gov is the U.S. government's official web portal to all federal, state and local government web resources and services.